Time,TemperatureF,DewpointF,PressureIn,WindDirection,WindDirectionDegrees,WindSpeedMPH,WindSpeedGustMPH,Humidity,HourlyPrecipIn,Conditions,Clouds,dailyrainin,SoftwareType,DateUTC
2013-08-20 00:04:00,67.7,62.7,29.92,N/A,-737280,0.0,-999.0,84,0.00,,,0.00,Wunderground v.1.15,2013-08-20 04:04:00,
2013-08-20 00:09:00,67.7,62.7,29.92,N/A,-737280,0.0,-999.0,84,0.00,,,0.00,Wunderground v.1.15,2013-08-20 04:09:00,
2013-08-20 00:14:00,67.7,62.7,29.92,N/A,-737280,0.0,-999.0,84,0.00,,,0.00,Wunderground v.1.15,2013-08-20 04:14:00,
2013-08-20 00:19:00,67.7,62.7,29.92,N/A,-737280,0.0,-999.0,84,0.00,,,0.00,Wunderground v.1.15,2013-08-20 04:19:00,
2013-08-20 00:24:00,67.7,62.7,29.92,N/A,-737280,0.0,-999.0,84,0.00,,,0.00,Wunderground v.1.15,2013-08-20 04:24:00,
2013-08-20 00:29:00,67.7,62.7,29.92,N/A,-737280,0.0,-999.0,84,0.00,,,0.00,Wunderground v.1.15,2013-08-20 04:29:00,
2013-08-20 00:34:00,67.7,62.7,29.92,N/A,-737280,0.0,-999.0,84,0.00,,,0.00,Wunderground v.1.15,2013-08-20 04:34:00,
2013-08-20 00:39:00,67.7,62.7,29.92,N/A,-737280,0.0,-999.0,84,0.00,,,0.00,Wunderground v.1.15,2013-08-20 04:39:00,
2013-08-20 00:44:00,67.7,62.7,29.92,N/A,-737280,0.0,-999.0,84,0.00,,,0.00,Wunderground v.1.15,2013-08-20 04:44:00,
2013-08-20 00:49:00,67.2,62.5,29.92,N/A,-737280,0.0,-999.0,85,0.00,,,0.00,Wunderground v.1.15,2013-08-20 04:49:00,
2013-08-20 00:54:00,67.2,62.5,29.92,N/A,-737280,0.0,-999.0,85,0.00,,,0.00,Wunderground v.1.15,2013-08-20 04:54:00,
2013-08-20 00:59:00,67.2,62.5,29.92,N/A,-737280,0.0,-999.0,85,0.00,,,0.00,Wunderground v.1.15,2013-08-20 04:59:00,
2013-08-20 01:04:00,67.2,62.5,29.92,N/A,-737280,0.0,-999.0,85,0.00,,,0.00,Wunderground v.1.15,2013-08-20 05:04:00,
2013-08-20 01:09:00,67.2,62.5,29.92,N/A,-737280,0.0,-999.0,85,0.00,,,0.00,Wunderground v.1.15,2013-08-20 05:09:00,
2013-08-20 01:14:00,67.2,62.5,29.92,N/A,-737280,0.0,-999.0,85,0.00,,,0.00,Wunderground v.1.15,2013-08-20 05:14:00,
2013-08-20 01:19:00,66.0,62.0,29.92,N/A,-737280,0.0,-999.0,87,0.00,,,0.00,Wunderground v.1.15,2013-08-20 05:19:00,
2013-08-20 01:24:00,66.0,62.0,29.92,N/A,-737280,0.0,-999.0,87,0.00,,,0.00,Wunderground v.1.15,2013-08-20 05:24:00,
2013-08-20 01:29:00,66.0,62.0,29.92,N/A,-737280,0.0,-999.0,87,0.00,,,0.00,Wunderground v.1.15,2013-08-20 05:29:00,
2013-08-20 01:34:00,66.0,62.0,29.92,N/A,-737280,0.0,-999.0,87,0.00,,,0.00,Wunderground v.1.15,2013-08-20 05:34:00,
2013-08-20 01:39:00,66.0,62.0,29.92,N/A,-737280,0.0,-999.0,87,0.00,,,0.00,Wunderground v.1.15,2013-08-20 05:39:00,
2013-08-20 01:44:00,66.0,62.0,29.92,N/A,-737280,0.0,-999.0,87,0.00,,,0.00,Wunderground v.1.15,2013-08-20 05:44:00,
2013-08-20 01:49:00,66.0,62.0,29.92,N/A,-737280,0.0,-999.0,87,0.00,,,0.00,Wunderground v.1.15,2013-08-20 05:49:00,
2013-08-20 01:54:00,66.0,62.0,29.92,N/A,-737280,0.0,-999.0,87,0.00,,,0.00,Wunderground v.1.15,2013-08-20 05:54:00,
2013-08-20 01:59:00,66.0,62.0,29.92,N/A,-737280,0.0,-999.0,87,0.00,,,0.00,Wunderground v.1.15,2013-08-20 05:59:00,
2013-08-20 02:04:00,66.0,62.0,29.92,N/A,-737280,0.0,-999.0,87,0.00,,,0.00,Wunderground v.1.15,2013-08-20 06:04:00,
2013-08-20 02:09:00,66.0,62.0,29.92,N/A,-737280,0.0,-999.0,87,0.00,,,0.00,Wunderground v.1.15,2013-08-20 06:09:00,
2013-08-20 02:14:00,66.0,62.0,29.92,N/A,-737280,0.0,-999.0,87,0.00,,,0.00,Wunderground v.1.15,2013-08-20 06:14:00,
2013-08-20 02:19:00,66.0,62.0,29.92,N/A,-737280,0.0,-999.0,87,0.00,,,0.00,Wunderground v.1.15,2013-08-20 06:19:00,
2013-08-20 02:24:00,66.0,62.0,29.92,N/A,-737280,0.0,-999.0,87,0.00,,,0.00,Wunderground v.1.15,2013-08-20 06:24:00,
2013-08-20 02:29:00,66.0,62.0,29.92,N/A,-737280,0.0,-999.0,87,0.00,,,0.00,Wunderground v.1.15,2013-08-20 06:29:00,
2013-08-20 02:34:00,66.0,62.0,29.92,N/A,-737280,0.0,-999.0,87,0.00,,,0.00,Wunderground v.1.15,2013-08-20 06:34:00,
2013-08-20 02:39:00,66.0,62.0,29.92,N/A,-737280,0.0,-999.0,87,0.00,,,0.00,Wunderground v.1.15,2013-08-20 06:39:00,
2013-08-20 02:44:00,66.0,62.0,29.92,N/A,-737280,0.0,-999.0,87,0.00,,,0.00,Wunderground v.1.15,2013-08-20 06:44:00,
2013-08-20 02:49:00,65.7,61.7,29.93,N/A,-737280,0.0,-999.0,87,0.00,,,0.00,Wunderground v.1.15,2013-08-20 06:49:00,
2013-08-20 02:54:00,65.7,61.7,29.93,N/A,-737280,0.0,-999.0,87,0.00,,,0.00,Wunderground v.1.15,2013-08-20 06:54:00,
2013-08-20 02:59:00,65.7,61.7,29.93,N/A,-737280,0.0,-999.0,87,0.00,,,0.00,Wunderground v.1.15,2013-08-20 06:59:00,
2013-08-20 03:04:00,65.7,61.7,29.93,N/A,-737280,0.0,-999.0,87,0.00,,,0.00,Wunderground v.1.15,2013-08-20 07:04:00,
2013-08-20 03:09:00,65.7,61.7,29.93,N/A,-737280,0.0,-999.0,87,0.00,,,0.00,Wunderground v.1.15,2013-08-20 07:09:00,
2013-08-20 03:14:00,65.7,61.7,29.93,N/A,-737280,0.0,-999.0,87,0.00,,,0.00,Wunderground v.1.15,2013-08-20 07:14:00,
2013-08-20 03:19:00,64.3,61.0,29.93,N/A,-737280,0.0,-999.0,89,0.00,,,0.00,Wunderground v.1.15,2013-08-20 07:19:00,
2013-08-20 03:24:00,64.3,61.0,29.93,N/A,-737280,0.0,-999.0,89,0.00,,,0.00,Wunderground v.1.15,2013-08-20 07:24:00,
2013-08-20 03:29:00,64.3,61.0,29.93,N/A,-737280,0.0,-999.0,89,0.00,,,0.00,Wunderground v.1.15,2013-08-20 07:29:00,
2013-08-20 03:34:00,64.3,61.0,29.93,N/A,-737280,0.0,-999.0,89,0.00,,,0.00,Wunderground v.1.15,2013-08-20 07:34:00,
2013-08-20 03:39:00,64.3,61.0,29.93,N/A,-737280,0.0,-999.0,89,0.00,,,0.00,Wunderground v.1.15,2013-08-20 07:39:00,
2013-08-20 03:44:00,64.3,61.0,29.93,N/A,-737280,0.0,-999.0,89,0.00,,,0.00,Wunderground v.1.15,2013-08-20 07:44:00,
2013-08-20 03:49:00,63.4,60.4,29.94,N/A,-737280,0.0,-999.0,90,0.00,,,0.00,Wunderground v.1.15,2013-08-20 07:49:00,
2013-08-20 03:54:00,63.4,60.4,29.94,N/A,-737280,0.0,-999.0,90,0.00,,,0.00,Wunderground v.1.15,2013-08-20 07:54:00,
2013-08-20 03:59:00,63.4,60.4,29.94,N/A,-737280,0.0,-999.0,90,0.00,,,0.00,Wunderground v.1.15,2013-08-20 07:59:00,
2013-08-20 04:04:00,63.4,60.4,29.94,N/A,-737280,0.0,-999.0,90,0.00,,,0.00,Wunderground v.1.15,2013-08-20 08:04:00,
2013-08-20 04:09:00,63.4,60.4,29.94,N/A,-737280,0.0,-999.0,90,0.00,,,0.00,Wunderground v.1.15,2013-08-20 08:09:00,
2013-08-20 04:14:00,63.4,60.4,29.94,N/A,-737280,0.0,-999.0,90,0.00,,,0.00,Wunderground v.1.15,2013-08-20 08:14:00,
2013-08-20 04:19:00,63.5,60.8,29.95,N/A,-737280,0.0,-999.0,91,0.00,,,0.00,Wunderground v.1.15,2013-08-20 08:19:00,
2013-08-20 04:24:00,63.5,60.8,29.95,N/A,-737280,0.0,-999.0,91,0.00,,,0.00,Wunderground v.1.15,2013-08-20 08:24:00,
2013-08-20 04:29:00,63.5,60.8,29.95,N/A,-737280,0.0,-999.0,91,0.00,,,0.00,Wunderground v.1.15,2013-08-20 08:29:00,
2013-08-20 04:34:00,63.5,60.8,29.95,N/A,-737280,0.0,-999.0,91,0.00,,,0.00,Wunderground v.1.15,2013-08-20 08:34:00,
2013-08-20 04:39:00,63.5,60.8,29.95,N/A,-737280,0.0,-999.0,91,0.00,,,0.00,Wunderground v.1.15,2013-08-20 08:39:00,
2013-08-20 04:44:00,63.5,60.8,29.95,N/A,-737280,0.0,-999.0,91,0.00,,,0.00,Wunderground v.1.15,2013-08-20 08:44:00,
2013-08-20 04:49:00,63.8,61.1,29.95,N/A,-737280,0.0,-999.0,91,0.00,,,0.00,Wunderground v.1.15,2013-08-20 08:49:00,
2013-08-20 04:54:00,63.8,61.1,29.95,N/A,-737280,0.0,-999.0,91,0.00,,,0.00,Wunderground v.1.15,2013-08-20 08:54:00,
2013-08-20 04:59:00,63.8,61.1,29.95,N/A,-737280,0.0,-999.0,91,0.00,,,0.00,Wunderground v.1.15,2013-08-20 08:59:00,
2013-08-20 05:04:00,63.8,61.1,29.95,N/A,-737280,0.0,-999.0,91,0.00,,,0.00,Wunderground v.1.15,2013-08-20 09:04:00,
2013-08-20 05:09:00,63.8,61.1,29.95,N/A,-737280,0.0,-999.0,91,0.00,,,0.00,Wunderground v.1.15,2013-08-20 09:09:00,
2013-08-20 05:14:00,63.8,61.1,29.95,N/A,-737280,0.0,-999.0,91,0.00,,,0.00,Wunderground v.1.15,2013-08-20 09:14:00,
2013-08-20 05:19:00,63.8,61.4,29.96,N/A,-737280,0.0,-999.0,92,0.00,,,0.00,Wunderground v.1.15,2013-08-20 09:19:00,
2013-08-20 05:24:00,63.8,61.4,29.96,N/A,-737280,0.0,-999.0,92,0.00,,,0.00,Wunderground v.1.15,2013-08-20 09:24:00,
2013-08-20 05:29:00,63.8,61.4,29.96,N/A,-737280,0.0,-999.0,92,0.00,,,0.00,Wunderground v.1.15,2013-08-20 09:29:00,
2013-08-20 05:34:00,63.8,61.4,29.96,N/A,-737280,0.0,-999.0,92,0.00,,,0.00,Wunderground v.1.15,2013-08-20 09:34:00,
2013-08-20 05:39:00,63.8,61.4,29.96,N/A,-737280,0.0,-999.0,92,0.00,,,0.00,Wunderground v.1.15,2013-08-20 09:39:00,
2013-08-20 05:44:00,63.8,61.4,29.96,N/A,-737280,0.0,-999.0,92,0.00,,,0.00,Wunderground v.1.15,2013-08-20 09:44:00,
2013-08-20 05:49:00,63.1,60.7,29.97,N/A,-737280,0.0,-999.0,92,0.00,,,0.00,Wunderground v.1.15,2013-08-20 09:49:00,
2013-08-20 05:54:00,63.1,60.7,29.97,N/A,-737280,0.0,-999.0,92,0.00,,,0.00,Wunderground v.1.15,2013-08-20 09:54:00,
2013-08-20 05:59:00,63.1,60.7,29.97,N/A,-737280,0.0,-999.0,92,0.00,,,0.00,Wunderground v.1.15,2013-08-20 09:59:00,
2013-08-20 06:04:00,63.1,60.7,29.97,N/A,-737280,0.0,-999.0,92,0.00,,,0.00,Wunderground v.1.15,2013-08-20 10:04:00,
2013-08-20 06:09:00,63.1,60.7,29.97,N/A,-737280,0.0,-999.0,92,0.00,,,0.00,Wunderground v.1.15,2013-08-20 10:09:00,
2013-08-20 06:14:00,63.1,60.7,29.97,N/A,-737280,0.0,-999.0,92,0.00,,,0.00,Wunderground v.1.15,2013-08-20 10:14:00,
2013-08-20 06:19:00,63.4,61.3,29.98,N/A,-737280,0.0,-999.0,93,0.00,,,0.00,Wunderground v.1.15,2013-08-20 10:19:00,
2013-08-20 06:24:00,63.4,61.3,29.98,N/A,-737280,0.0,-999.0,93,0.00,,,0.00,Wunderground v.1.15,2013-08-20 10:24:00,
2013-08-20 06:29:00,63.4,61.3,29.98,N/A,-737280,0.0,-999.0,93,0.00,,,0.00,Wunderground v.1.15,2013-08-20 10:29:00,
2013-08-20 06:34:00,63.4,61.3,29.98,N/A,-737280,0.0,-999.0,93,0.00,,,0.00,Wunderground v.1.15,2013-08-20 10:34:00,
2013-08-20 06:39:00,63.4,61.3,29.98,N/A,-737280,0.0,-999.0,93,0.00,,,0.00,Wunderground v.1.15,2013-08-20 10:39:00,
2013-08-20 06:44:00,63.4,61.3,29.98,N/A,-737280,0.0,-999.0,93,0.00,,,0.00,Wunderground v.1.15,2013-08-20 10:44:00,
2013-08-20 06:49:00,63.3,61.2,29.98,N/A,-737280,0.0,-999.0,93,0.00,,,0.00,Wunderground v.1.15,2013-08-20 10:49:00,
2013-08-20 06:54:00,63.3,61.2,29.98,N/A,-737280,0.0,-999.0,93,0.00,,,0.00,Wunderground v.1.15,2013-08-20 10:54:00,
2013-08-20 06:59:00,63.3,61.2,29.98,N/A,-737280,0.0,-999.0,93,0.00,,,0.00,Wunderground v.1.15,2013-08-20 10:59:00,
2013-08-20 07:04:00,63.3,61.2,29.98,N/A,-737280,0.0,-999.0,93,0.00,,,0.00,Wunderground v.1.15,2013-08-20 11:04:00,
2013-08-20 07:09:00,63.3,61.2,29.98,N/A,-737280,0.0,-999.0,93,0.00,,,0.00,Wunderground v.1.15,2013-08-20 11:09:00,
2013-08-20 07:14:00,63.3,61.2,29.98,N/A,-737280,0.0,-999.0,93,0.00,,,0.00,Wunderground v.1.15,2013-08-20 11:14:00,
2013-08-20 07:19:00,63.8,61.7,30.00,N/A,-737280,0.0,-999.0,93,0.00,,,0.00,Wunderground v.1.15,2013-08-20 11:19:00,
2013-08-20 07:24:00,63.8,61.7,30.00,N/A,-737280,0.0,-999.0,93,0.00,,,0.00,Wunderground v.1.15,2013-08-20 11:24:00,
2013-08-20 07:29:00,63.8,61.7,30.00,N/A,-737280,0.0,-999.0,93,0.00,,,0.00,Wunderground v.1.15,2013-08-20 11:29:00,
2013-08-20 07:34:00,63.8,61.7,30.00,N/A,-737280,0.0,-999.0,93,0.00,,,0.00,Wunderground v.1.15,2013-08-20 11:34:00,
2013-08-20 07:39:00,63.8,61.7,30.00,N/A,-737280,0.0,-999.0,93,0.00,,,0.00,Wunderground v.1.15,2013-08-20 11:39:00,
2013-08-20 07:44:00,63.8,61.7,30.00,N/A,-737280,0.0,-999.0,93,0.00,,,0.00,Wunderground v.1.15,2013-08-20 11:44:00,
2013-08-20 07:49:00,65.7,63.6,30.00,N/A,-737280,0.0,-999.0,93,0.00,,,0.00,Wunderground v.1.15,2013-08-20 11:49:00,
2013-08-20 07:54:00,65.7,63.6,30.00,N/A,-737280,0.0,-999.0,93,0.00,,,0.00,Wunderground v.1.15,2013-08-20 11:54:00,
2013-08-20 07:59:00,65.7,63.6,30.00,N/A,-737280,0.0,-999.0,93,0.00,,,0.00,Wunderground v.1.15,2013-08-20 11:59:00,
2013-08-20 08:04:00,65.7,63.6,30.00,N/A,-737280,0.0,-999.0,93,0.00,,,0.00,Wunderground v.1.15,2013-08-20 12:04:00,
2013-08-20 08:09:00,65.7,63.6,30.00,N/A,-737280,0.0,-999.0,93,0.00,,,0.00,Wunderground v.1.15,2013-08-20 12:09:00,
2013-08-20 08:14:00,65.7,63.6,30.00,N/A,-737280,0.0,-999.0,93,0.00,,,0.00,Wunderground v.1.15,2013-08-20 12:14:00,
2013-08-20 08:19:00,67.9,64.2,30.01,N/A,-737280,0.0,-999.0,88,0.00,,,0.00,Wunderground v.1.15,2013-08-20 12:19:00,
2013-08-20 08:24:00,67.9,64.2,30.01,N/A,-737280,0.0,-999.0,88,0.00,,,0.00,Wunderground v.1.15,2013-08-20 12:24:00,
2013-08-20 08:29:00,67.9,64.2,30.01,N/A,-737280,0.0,-999.0,88,0.00,,,0.00,Wunderground v.1.15,2013-08-20 12:29:00,
2013-08-20 08:34:00,67.9,64.2,30.01,N/A,-737280,0.0,-999.0,88,0.00,,,0.00,Wunderground v.1.15,2013-08-20 12:34:00,
2013-08-20 08:39:00,67.9,64.2,30.01,N/A,-737280,0.0,-999.0,88,0.00,,,0.00,Wunderground v.1.15,2013-08-20 12:39:00,
2013-08-20 08:44:00,67.9,64.2,30.01,N/A,-737280,0.0,-999.0,88,0.00,,,0.00,Wunderground v.1.15,2013-08-20 12:44:00,
2013-08-20 08:49:00,69.8,64.7,30.01,N/A,-737280,0.0,-999.0,84,0.00,,,0.00,Wunderground v.1.15,2013-08-20 12:49:00,
2013-08-20 08:54:00,69.8,64.7,30.01,N/A,-737280,0.0,-999.0,84,0.00,,,0.00,Wunderground v.1.15,2013-08-20 12:54:00,
2013-08-20 08:59:00,69.8,64.7,30.01,N/A,-737280,0.0,-999.0,84,0.00,,,0.00,Wunderground v.1.15,2013-08-20 12:59:00,
2013-08-20 09:04:00,69.8,64.7,30.01,N/A,-737280,0.0,-999.0,84,0.00,,,0.00,Wunderground v.1.15,2013-08-20 13:04:00,
2013-08-20 09:09:00,69.8,64.7,30.01,N/A,-737280,0.0,-999.0,84,0.00,,,0.00,Wunderground v.1.15,2013-08-20 13:09:00,
2013-08-20 09:14:00,69.8,64.7,30.01,N/A,-737280,0.0,-999.0,84,0.00,,,0.00,Wunderground v.1.15,2013-08-20 13:14:00,
2013-08-20 09:19:00,71.8,65.7,30.02,N/A,-737280,0.0,-999.0,81,0.00,,,0.00,Wunderground v.1.15,2013-08-20 13:19:00,
2013-08-20 09:24:00,71.8,65.7,30.02,N/A,-737280,0.0,-999.0,81,0.00,,,0.00,Wunderground v.1.15,2013-08-20 13:24:00,
2013-08-20 09:29:00,71.8,65.7,30.02,N/A,-737280,0.0,-999.0,81,0.00,,,0.00,Wunderground v.1.15,2013-08-20 13:29:00,
2013-08-20 09:34:00,71.8,65.7,30.02,N/A,-737280,0.0,-999.0,81,0.00,,,0.00,Wunderground v.1.15,2013-08-20 13:34:00,
2013-08-20 09:39:00,71.8,65.7,30.02,N/A,-737280,0.0,-999.0,81,0.00,,,0.00,Wunderground v.1.15,2013-08-20 13:39:00,
2013-08-20 09:44:00,71.8,65.7,30.02,N/A,-737280,0.0,-999.0,81,0.00,,,0.00,Wunderground v.1.15,2013-08-20 13:44:00,
2013-08-20 09:49:00,74.3,65.9,30.01,SSE,158,0.0,-999.0,75,0.00,,,0.00,Wunderground v.1.15,2013-08-20 13:49:00,
2013-08-20 09:54:00,74.3,65.9,30.01,SSE,158,0.0,-999.0,75,0.00,,,0.00,Wunderground v.1.15,2013-08-20 13:54:00,
2013-08-20 09:59:00,74.3,65.9,30.01,SSE,158,0.0,-999.0,75,0.00,,,0.00,Wunderground v.1.15,2013-08-20 13:59:00,
2013-08-20 10:04:00,74.3,65.9,30.01,SSE,158,0.0,-999.0,75,0.00,,,0.00,Wunderground v.1.15,2013-08-20 14:04:00,
2013-08-20 10:09:00,74.3,65.9,30.01,SSE,158,0.0,-999.0,75,0.00,,,0.00,Wunderground v.1.15,2013-08-20 14:09:00,
2013-08-20 10:14:00,74.3,65.9,30.01,SSE,158,0.0,-999.0,75,0.00,,,0.00,Wunderground v.1.15,2013-08-20 14:14:00,
2013-08-20 10:19:00,77.0,65.6,30.01,SE,135,0.0,-999.0,68,0.00,,,0.00,Wunderground v.1.15,2013-08-20 14:19:00,
2013-08-20 10:24:00,77.0,65.6,30.01,SE,135,0.0,-999.0,68,0.00,,,0.00,Wunderground v.1.15,2013-08-20 14:24:00,
2013-08-20 10:29:00,77.0,65.6,30.01,SE,135,0.0,-999.0,68,0.00,,,0.00,Wunderground v.1.15,2013-08-20 14:29:00,
2013-08-20 10:34:00,77.0,65.6,30.01,SE,135,0.0,-999.0,68,0.00,,,0.00,Wunderground v.1.15,2013-08-20 14:34:00,
2013-08-20 10:39:00,77.0,65.6,30.01,SE,135,0.0,-999.0,68,0.00,,,0.00,Wunderground v.1.15,2013-08-20 14:39:00,
2013-08-20 10:44:00,77.0,65.6,30.01,SE,135,0.0,-999.0,68,0.00,,,0.00,Wunderground v.1.15,2013-08-20 14:44:00,
2013-08-20 10:49:00,80.4,65.7,30.01,SSE,158,0.0,-999.0,61,0.00,,,0.00,Wunderground v.1.15,2013-08-20 14:49:00,
2013-08-20 10:54:00,80.4,65.7,30.01,SSE,158,0.0,-999.0,61,0.00,,,0.00,Wunderground v.1.15,2013-08-20 14:54:00,
2013-08-20 10:59:00,80.4,65.7,30.01,SSE,158,0.0,-999.0,61,0.00,,,0.00,Wunderground v.1.15,2013-08-20 14:59:00,
2013-08-20 11:04:00,80.4,65.7,30.01,SSE,158,0.0,-999.0,61,0.00,,,0.00,Wunderground v.1.15,2013-08-20 15:04:00,
2013-08-20 11:09:00,80.4,65.7,30.01,SSE,158,0.0,-999.0,61,0.00,,,0.00,Wunderground v.1.15,2013-08-20 15:09:00,
2013-08-20 11:14:00,80.4,65.7,30.01,SSE,158,0.0,-999.0,61,0.00,,,0.00,Wunderground v.1.15,2013-08-20 15:14:00,
2013-08-20 11:19:00,82.3,66.5,30.02,SSW,203,0.0,-999.0,59,0.00,,,0.00,Wunderground v.1.15,2013-08-20 15:19:00,
2013-08-20 11:24:00,82.3,66.5,30.02,SSW,203,0.0,-999.0,59,0.00,,,0.00,Wunderground v.1.15,2013-08-20 15:24:00,
2013-08-20 11:29:00,82.3,66.5,30.02,SSW,203,0.0,-999.0,59,0.00,,,0.00,Wunderground v.1.15,2013-08-20 15:29:00,
2013-08-20 11:34:00,82.3,66.5,30.02,SSW,203,0.0,-999.0,59,0.00,,,0.00,Wunderground v.1.15,2013-08-20 15:34:00,
2013-08-20 11:39:00,82.3,66.5,30.02,SSW,203,0.0,-999.0,59,0.00,,,0.00,Wunderground v.1.15,2013-08-20 15:39:00,
2013-08-20 11:44:00,82.3,66.5,30.02,SSW,203,0.0,-999.0,59,0.00,,,0.00,Wunderground v.1.15,2013-08-20 15:44:00,
2013-08-20 11:49:00,83.7,65.3,30.01,South,180,0.0,-999.0,54,0.00,,,0.00,Wunderground v.1.15,2013-08-20 15:49:00,
2013-08-20 11:54:00,83.7,65.3,30.01,South,180,0.0,-999.0,54,0.00,,,0.00,Wunderground v.1.15,2013-08-20 15:54:00,
2013-08-20 11:59:00,83.7,65.3,30.01,South,180,0.0,-999.0,54,0.00,,,0.00,Wunderground v.1.15,2013-08-20 15:59:00,
2013-08-20 12:04:00,83.7,65.3,30.01,South,180,0.0,-999.0,54,0.00,,,0.00,Wunderground v.1.15,2013-08-20 16:04:00,
2013-08-20 12:09:00,83.7,65.3,30.01,South,180,0.0,-999.0,54,0.00,,,0.00,Wunderground v.1.15,2013-08-20 16:09:00,
2013-08-20 12:14:00,83.7,65.3,30.01,South,180,0.0,-999.0,54,0.00,,,0.00,Wunderground v.1.15,2013-08-20 16:14:00,
2013-08-20 12:19:00,85.0,67.0,30.00,SSE,158,0.0,-999.0,55,0.00,,,0.00,Wunderground v.1.15,2013-08-20 16:19:00,
2013-08-20 12:24:00,85.0,67.0,30.00,SSE,158,0.0,-999.0,55,0.00,,,0.00,Wunderground v.1.15,2013-08-20 16:24:00,
2013-08-20 12:29:00,85.0,67.0,30.00,SSE,158,0.0,-999.0,55,0.00,,,0.00,Wunderground v.1.15,2013-08-20 16:29:00,
2013-08-20 12:34:00,85.0,67.0,30.00,SSE,158,0.0,-999.0,55,0.00,,,0.00,Wunderground v.1.15,2013-08-20 16:34:00,
2013-08-20 12:39:00,85.0,67.0,30.00,SSE,158,0.0,-999.0,55,0.00,,,0.00,Wunderground v.1.15,2013-08-20 16:39:00,
2013-08-20 12:44:00,85.0,67.0,30.00,SSE,158,0.0,-999.0,55,0.00,,,0.00,Wunderground v.1.15,2013-08-20 16:44:00,
2013-08-20 12:49:00,81.5,65.8,30.01,SE,135,1.0,-999.0,59,0.00,,,0.00,Wunderground v.1.15,2013-08-20 16:49:00,
2013-08-20 12:54:00,81.5,65.8,30.01,SE,135,1.0,-999.0,59,0.00,,,0.00,Wunderground v.1.15,2013-08-20 16:54:00,
2013-08-20 12:59:00,81.5,65.8,30.01,SE,135,1.0,-999.0,59,0.00,,,0.00,Wunderground v.1.15,2013-08-20 16:59:00,
2013-08-20 13:04:00,81.5,65.8,30.01,SE,135,1.0,-999.0,59,0.00,,,0.00,Wunderground v.1.15,2013-08-20 17:04:00,
2013-08-20 13:09:00,81.5,65.8,30.01,SE,135,1.0,-999.0,59,0.00,,,0.00,Wunderground v.1.15,2013-08-20 17:09:00,
2013-08-20 13:14:00,81.5,65.8,30.01,SE,135,1.0,-999.0,59,0.00,,,0.00,Wunderground v.1.15,2013-08-20 17:14:00,
2013-08-20 13:19:00,81.0,66.3,30.01,SE,135,2.0,-999.0,61,0.00,,,0.00,Wunderground v.1.15,2013-08-20 17:19:00,
2013-08-20 13:24:00,81.0,66.3,30.01,SE,135,2.0,-999.0,61,0.00,,,0.00,Wunderground v.1.15,2013-08-20 17:24:00,
2013-08-20 13:29:00,81.0,66.3,30.01,SE,135,2.0,-999.0,61,0.00,,,0.00,Wunderground v.1.15,2013-08-20 17:29:00,
2013-08-20 13:34:00,81.0,66.3,30.01,SE,135,2.0,-999.0,61,0.00,,,0.00,Wunderground v.1.15,2013-08-20 17:34:00,
2013-08-20 13:39:00,81.0,66.3,30.01,SE,135,2.0,-999.0,61,0.00,,,0.00,Wunderground v.1.15,2013-08-20 17:39:00,
2013-08-20 13:44:00,81.0,66.3,30.01,SE,135,2.0,-999.0,61,0.00,,,0.00,Wunderground v.1.15,2013-08-20 17:44:00,
2013-08-20 13:49:00,80.8,65.6,30.01,SE,135,2.0,-999.0,60,0.00,,,0.00,Wunderground v.1.15,2013-08-20 17:49:00,
2013-08-20 13:54:00,80.8,65.6,30.01,SE,135,2.0,-999.0,60,0.00,,,0.00,Wunderground v.1.15,2013-08-20 17:54:00,
2013-08-20 13:59:00,80.8,65.6,30.01,SE,135,2.0,-999.0,60,0.00,,,0.00,Wunderground v.1.15,2013-08-20 17:59:00,
2013-08-20 14:04:00,80.8,65.6,30.01,SE,135,2.0,-999.0,60,0.00,,,0.00,Wunderground v.1.15,2013-08-20 18:04:00,
2013-08-20 14:09:00,80.8,65.6,30.01,SE,135,2.0,-999.0,60,0.00,,,0.00,Wunderground v.1.15,2013-08-20 18:09:00,
2013-08-20 14:14:00,80.8,65.6,30.01,SE,135,2.0,-999.0,60,0.00,,,0.00,Wunderground v.1.15,2013-08-20 18:14:00,
2013-08-20 14:19:00,82.4,66.6,30.01,SE,135,1.0,-999.0,59,0.00,,,0.00,Wunderground v.1.15,2013-08-20 18:19:00,
2013-08-20 14:24:00,82.4,66.6,30.01,SE,135,1.0,-999.0,59,0.00,,,0.00,Wunderground v.1.15,2013-08-20 18:24:00,
2013-08-20 14:29:00,82.4,66.6,30.01,SE,135,1.0,-999.0,59,0.00,,,0.00,Wunderground v.1.15,2013-08-20 18:29:00,
2013-08-20 14:34:00,82.4,66.6,30.01,SE,135,1.0,-999.0,59,0.00,,,0.00,Wunderground v.1.15,2013-08-20 18:34:00,
2013-08-20 14:39:00,82.4,66.6,30.01,SE,135,1.0,-999.0,59,0.00,,,0.00,Wunderground v.1.15,2013-08-20 18:39:00,
2013-08-20 14:44:00,82.4,66.6,30.01,SE,135,1.0,-999.0,59,0.00,,,0.00,Wunderground v.1.15,2013-08-20 18:44:00,
2013-08-20 14:49:00,81.7,65.5,30.00,SE,135,2.0,-999.0,58,0.00,,,0.00,Wunderground v.1.15,2013-08-20 18:49:00,
2013-08-20 14:54:00,81.7,65.5,30.00,SE,135,2.0,-999.0,58,0.00,,,0.00,Wunderground v.1.15,2013-08-20 18:54:00,
2013-08-20 14:59:00,81.7,65.5,30.00,SE,135,2.0,-999.0,58,0.00,,,0.00,Wunderground v.1.15,2013-08-20 18:59:00,
2013-08-20 15:04:00,81.7,65.5,30.00,SE,135,2.0,-999.0,58,0.00,,,0.00,Wunderground v.1.15,2013-08-20 19:04:00,
2013-08-20 15:09:00,81.7,65.5,30.00,SE,135,2.0,-999.0,58,0.00,,,0.00,Wunderground v.1.15,2013-08-20 19:09:00,
2013-08-20 15:14:00,81.7,65.5,30.00,SE,135,2.0,-999.0,58,0.00,,,0.00,Wunderground v.1.15,2013-08-20 19:14:00,
2013-08-20 15:19:00,80.0,63.9,30.00,SE,135,2.0,-999.0,58,0.00,,,0.00,Wunderground v.1.15,2013-08-20 19:19:00,
2013-08-20 15:24:00,80.0,63.9,30.00,SE,135,2.0,-999.0,58,0.00,,,0.00,Wunderground v.1.15,2013-08-20 19:24:00,
2013-08-20 15:29:00,80.0,63.9,30.00,SE,135,2.0,-999.0,58,0.00,,,0.00,Wunderground v.1.15,2013-08-20 19:29:00,
2013-08-20 15:34:00,80.0,63.9,30.00,SE,135,2.0,-999.0,58,0.00,,,0.00,Wunderground v.1.15,2013-08-20 19:34:00,
2013-08-20 15:39:00,80.0,63.9,30.00,SE,135,2.0,-999.0,58,0.00,,,0.00,Wunderground v.1.15,2013-08-20 19:39:00,
2013-08-20 15:44:00,80.0,63.9,30.00,SE,135,2.0,-999.0,58,0.00,,,0.00,Wunderground v.1.15,2013-08-20 19:44:00,
2013-08-20 15:49:00,78.9,62.9,30.00,SE,135,2.0,-999.0,58,0.00,,,0.00,Wunderground v.1.15,2013-08-20 19:49:00,
2013-08-20 15:54:00,78.9,62.9,30.00,SE,135,2.0,-999.0,58,0.00,,,0.00,Wunderground v.1.15,2013-08-20 19:54:00,
2013-08-20 15:59:00,78.9,62.9,30.00,SE,135,2.0,-999.0,58,0.00,,,0.00,Wunderground v.1.15,2013-08-20 19:59:00,
2013-08-20 16:04:00,78.9,62.9,30.00,SE,135,2.0,-999.0,58,0.00,,,0.00,Wunderground v.1.15,2013-08-20 20:04:00,
2013-08-20 16:09:00,78.9,62.9,30.00,SE,135,2.0,-999.0,58,0.00,,,0.00,Wunderground v.1.15,2013-08-20 20:09:00,
2013-08-20 16:14:00,78.9,62.9,30.00,SE,135,2.0,-999.0,58,0.00,,,0.00,Wunderground v.1.15,2013-08-20 20:14:00,
2013-08-20 16:19:00,78.7,63.6,30.00,SE,135,2.0,-999.0,60,0.00,,,0.00,Wunderground v.1.15,2013-08-20 20:19:00,
2013-08-20 16:24:00,78.7,63.6,30.00,SE,135,2.0,-999.0,60,0.00,,,0.00,Wunderground v.1.15,2013-08-20 20:24:00,
2013-08-20 16:29:00,78.7,63.6,30.00,SE,135,2.0,-999.0,60,0.00,,,0.00,Wunderground v.1.15,2013-08-20 20:29:00,
2013-08-20 16:34:00,78.7,63.6,30.00,SE,135,2.0,-999.0,60,0.00,,,0.00,Wunderground v.1.15,2013-08-20 20:34:00,
2013-08-20 16:39:00,78.7,63.6,30.00,SE,135,2.0,-999.0,60,0.00,,,0.00,Wunderground v.1.15,2013-08-20 20:39:00,
2013-08-20 16:44:00,78.7,63.6,30.00,SE,135,2.0,-999.0,60,0.00,,,0.00,Wunderground v.1.15,2013-08-20 20:44:00,
2013-08-20 16:49:00,77.5,63.0,30.00,SE,135,2.0,-999.0,61,0.00,,,0.00,Wunderground v.1.15,2013-08-20 20:49:00,
2013-08-20 16:54:00,77.5,63.0,30.00,SE,135,2.0,-999.0,61,0.00,,,0.00,Wunderground v.1.15,2013-08-20 20:54:00,
2013-08-20 16:59:00,77.5,63.0,30.00,SE,135,2.0,-999.0,61,0.00,,,0.00,Wunderground v.1.15,2013-08-20 20:59:00,
2013-08-20 17:04:00,77.5,63.0,30.00,SE,135,2.0,-999.0,61,0.00,,,0.00,Wunderground v.1.15,2013-08-20 21:04:00,
2013-08-20 17:09:00,77.5,63.0,30.00,SE,135,2.0,-999.0,61,0.00,,,0.00,Wunderground v.1.15,2013-08-20 21:09:00,
2013-08-20 17:14:00,77.5,63.0,30.00,SE,135,2.0,-999.0,61,0.00,,,0.00,Wunderground v.1.15,2013-08-20 21:14:00,
2013-08-20 17:19:00,77.4,62.4,30.00,SE,135,2.0,-999.0,60,0.00,,,0.00,Wunderground v.1.15,2013-08-20 21:19:00,
2013-08-20 17:24:00,77.4,62.4,30.00,SE,135,2.0,-999.0,60,0.00,,,0.00,Wunderground v.1.15,2013-08-20 21:24:00,
2013-08-20 17:29:00,77.4,62.4,30.00,SE,135,2.0,-999.0,60,0.00,,,0.00,Wunderground v.1.15,2013-08-20 21:29:00,
2013-08-20 17:34:00,77.4,62.4,30.00,SE,135,2.0,-999.0,60,0.00,,,0.00,Wunderground v.1.15,2013-08-20 21:34:00,
2013-08-20 17:39:00,77.4,62.4,30.00,SE,135,2.0,-999.0,60,0.00,,,0.00,Wunderground v.1.15,2013-08-20 21:39:00,
2013-08-20 17:44:00,77.4,62.4,30.00,SE,135,2.0,-999.0,60,0.00,,,0.00,Wunderground v.1.15,2013-08-20 21:44:00,
2013-08-20 17:49:00,75.3,62.3,30.01,SE,135,1.0,-999.0,64,0.00,,,0.00,Wunderground v.1.15,2013-08-20 21:49:00,
2013-08-20 17:54:00,75.3,62.3,30.01,SE,135,1.0,-999.0,64,0.00,,,0.00,Wunderground v.1.15,2013-08-20 21:54:00,
2013-08-20 18:04:00,75.3,62.3,30.01,SE,135,1.0,-999.0,64,0.00,,,0.00,Wunderground v.1.15,2013-08-20 22:04:00,
2013-08-20 18:14:00,75.3,62.3,30.01,SE,135,1.0,-999.0,64,0.00,,,0.00,Wunderground v.1.15,2013-08-20 22:14:00,
2013-08-20 18:19:00,73.9,62.2,30.01,SE,135,1.0,-999.0,67,0.00,,,0.00,Wunderground v.1.15,2013-08-20 22:19:00,
2013-08-20 18:24:00,73.9,62.2,30.01,SE,135,1.0,-999.0,67,0.00,,,0.00,Wunderground v.1.15,2013-08-20 22:24:00,
2013-08-20 18:29:00,73.9,62.2,30.01,SE,135,1.0,-999.0,67,0.00,,,0.00,Wunderground v.1.15,2013-08-20 22:29:00,
2013-08-20 18:34:00,73.9,62.2,30.01,SE,135,1.0,-999.0,67,0.00,,,0.00,Wunderground v.1.15,2013-08-20 22:34:00,
2013-08-20 18:39:00,73.9,62.2,30.01,SE,135,1.0,-999.0,67,0.00,,,0.00,Wunderground v.1.15,2013-08-20 22:39:00,
2013-08-20 18:44:00,73.9,62.2,30.01,SE,135,1.0,-999.0,67,0.00,,,0.00,Wunderground v.1.15,2013-08-20 22:44:00,
2013-08-20 18:49:00,72.1,62.2,30.02,SE,135,1.0,-999.0,71,0.00,,,0.00,Wunderground v.1.15,2013-08-20 22:49:00,
2013-08-20 18:54:00,72.1,62.2,30.02,SE,135,1.0,-999.0,71,0.00,,,0.00,Wunderground v.1.15,2013-08-20 22:54:00,
2013-08-20 18:59:00,72.1,62.2,30.02,SE,135,1.0,-999.0,71,0.00,,,0.00,Wunderground v.1.15,2013-08-20 22:59:00,
2013-08-20 19:04:00,72.1,62.2,30.02,SE,135,1.0,-999.0,71,0.00,,,0.00,Wunderground v.1.15,2013-08-20 23:04:00,
2013-08-20 19:09:00,72.1,62.2,30.02,SE,135,1.0,-999.0,71,0.00,,,0.00,Wunderground v.1.15,2013-08-20 23:09:00,
2013-08-20 19:14:00,72.1,62.2,30.02,SE,135,1.0,-999.0,71,0.00,,,0.00,Wunderground v.1.15,2013-08-20 23:14:00,
2013-08-20 19:19:00,70.8,62.1,30.03,SE,135,1.0,-999.0,74,0.00,,,0.00,Wunderground v.1.15,2013-08-20 23:19:00,
2013-08-20 19:29:00,70.8,62.1,30.03,SE,135,1.0,-999.0,74,0.00,,,0.00,Wunderground v.1.15,2013-08-20 23:29:00,
2013-08-20 19:34:00,70.8,62.1,30.03,SE,135,1.0,-999.0,74,0.00,,,0.00,Wunderground v.1.15,2013-08-20 23:34:00,
2013-08-20 19:39:00,70.8,62.1,30.03,SE,135,1.0,-999.0,74,0.00,,,0.00,Wunderground v.1.15,2013-08-20 23:39:00,
2013-08-20 19:44:00,70.8,62.1,30.03,SE,135,1.0,-999.0,74,0.00,,,0.00,Wunderground v.1.15,2013-08-20 23:44:00,
2013-08-20 19:49:00,69.6,62.1,30.03,SE,135,0.0,-999.0,77,0.00,,,0.00,Wunderground v.1.15,2013-08-20 23:49:00,
2013-08-20 19:54:00,69.6,62.1,30.03,SE,135,0.0,-999.0,77,0.00,,,0.00,Wunderground v.1.15,2013-08-20 23:54:00,
2013-08-20 19:59:00,69.6,62.1,30.03,SE,135,0.0,-999.0,77,0.00,,,0.00,Wunderground v.1.15,2013-08-20 23:59:00,
2013-08-20 20:04:00,69.6,62.1,30.03,SE,135,0.0,-999.0,77,0.00,,,0.00,Wunderground v.1.15,2013-08-21 00:04:00,
2013-08-20 20:09:00,69.6,62.1,30.03,SE,135,0.0,-999.0,77,0.00,,,0.00,Wunderground v.1.15,2013-08-21 00:09:00,
2013-08-20 20:14:00,69.6,62.1,30.03,SE,135,0.0,-999.0,77,0.00,,,0.00,Wunderground v.1.15,2013-08-21 00:14:00,
2013-08-20 20:19:00,68.6,62.2,30.04,SE,135,0.0,-999.0,80,0.00,,,0.00,Wunderground v.1.15,2013-08-21 00:19:00,
2013-08-20 20:24:00,68.6,62.2,30.04,SE,135,0.0,-999.0,80,0.00,,,0.00,Wunderground v.1.15,2013-08-21 00:24:00,
2013-08-20 20:29:00,68.6,62.2,30.04,SE,135,0.0,-999.0,80,0.00,,,0.00,Wunderground v.1.15,2013-08-21 00:29:00,
2013-08-20 20:34:00,68.6,62.2,30.04,SE,135,0.0,-999.0,80,0.00,,,0.00,Wunderground v.1.15,2013-08-21 00:34:00,
2013-08-20 20:39:00,68.6,62.2,30.04,SE,135,0.0,-999.0,80,0.00,,,0.00,Wunderground v.1.15,2013-08-21 00:39:00,
2013-08-20 20:44:00,68.6,62.2,30.04,SE,135,0.0,-999.0,80,0.00,,,0.00,Wunderground v.1.15,2013-08-21 00:44:00,
2013-08-20 20:49:00,68.3,62.6,30.04,SSE,158,0.0,-999.0,82,0.00,,,0.00,Wunderground v.1.15,2013-08-21 00:49:00,
2013-08-20 20:54:00,68.3,62.6,30.04,SSE,158,0.0,-999.0,82,0.00,,,0.00,Wunderground v.1.15,2013-08-21 00:54:00,
2013-08-20 20:59:00,68.3,62.6,30.04,SSE,158,0.0,-999.0,82,0.00,,,0.00,Wunderground v.1.15,2013-08-21 00:59:00,
2013-08-20 21:10:00,68.2,62.8,30.04,SSE,158,0.0,0.0,83,0.00,,,0.00,Wunderground v.1.15,2013-08-21 01:10:00,
2013-08-20 21:20:00,68.2,63.2,30.04,SE,144,0.0,0.0,84,0.00,,,0.00,Wunderground v.1.15,2013-08-21 01:20:00,
2013-08-20 21:25:00,68.2,63.5,30.05,SSE,154,0.0,0.0,85,0.00,,,0.00,Wunderground v.1.15,2013-08-21 01:25:00,
2013-08-20 21:30:00,68.2,63.9,30.05,SSE,160,0.0,0.0,86,0.00,,,0.00,Wunderground v.1.15,2013-08-21 01:30:00,
2013-08-20 21:35:00,68.1,63.8,30.04,SSE,151,0.0,0.0,86,0.00,,,0.00,Wunderground v.1.15,2013-08-21 01:35:00,
2013-08-20 21:45:00,67.9,63.6,30.05,SSE,159,0.0,0.0,86,0.00,,,0.00,Wunderground v.1.15,2013-08-21 01:45:00,
2013-08-20 21:50:00,67.9,63.6,30.05,SE,144,0.0,0.0,86,0.00,,,0.00,Wunderground v.1.15,2013-08-21 01:50:00,
2013-08-20 21:55:00,67.8,63.5,30.05,SE,129,0.0,0.0,86,0.00,,,0.00,Wunderground v.1.15,2013-08-21 01:55:00,
2013-08-20 22:00:00,67.7,63.4,30.05,SE,133,0.0,0.0,86,0.00,,,0.00,Wunderground v.1.15,2013-08-21 02:00:00,
2013-08-20 22:05:00,67.7,63.4,30.05,ESE,118,0.0,1.0,86,0.00,,,0.00,Wunderground v.1.15,2013-08-21 02:05:00,
2013-08-20 22:10:00,67.7,63.4,30.05,SE,131,0.0,2.0,86,0.00,,,0.00,Wunderground v.1.15,2013-08-21 02:10:00,
2013-08-20 22:20:00,67.7,63.4,30.05,SSE,157,0.0,2.0,86,0.00,,,0.00,Wunderground v.1.15,2013-08-21 02:20:00,
2013-08-20 22:25:00,67.6,63.3,30.05,SE,139,0.0,2.0,86,0.00,,,0.00,Wunderground v.1.15,2013-08-21 02:25:00,
2013-08-20 22:30:00,67.6,63.3,30.05,SE,133,0.0,0.0,86,0.00,,,0.00,Wunderground v.1.15,2013-08-21 02:30:00,
2013-08-20 22:35:00,67.7,63.4,30.05,SE,129,0.0,0.0,86,0.00,,,0.00,Wunderground v.1.15,2013-08-21 02:35:00,
2013-08-20 22:40:00,67.7,63.7,30.04,SE,124,0.0,2.0,87,0.00,,,0.00,Wunderground v.1.15,2013-08-21 02:40:00,
2013-08-20 22:50:00,67.7,63.7,30.04,ESE,115,1.0,1.0,87,0.00,,,0.00,Wunderground v.1.15,2013-08-21 02:50:00,
2013-08-20 22:55:00,67.7,63.7,30.04,South,174,1.0,2.0,87,0.00,,,0.00,Wunderground v.1.15,2013-08-21 02:55:00,
2013-08-20 23:00:00,67.7,63.7,30.04,SE,146,1.0,1.0,87,0.00,,,0.00,Wunderground v.1.15,2013-08-21 03:00:00,
2013-08-20 23:05:00,67.6,63.9,30.04,SE,146,0.0,4.0,88,0.00,,,0.00,Wunderground v.1.15,2013-08-21 03:05:00,
2013-08-20 23:10:00,67.6,63.9,30.04,SE,136,0.0,4.0,88,0.00,,,0.00,Wunderground v.1.15,2013-08-21 03:10:00,
2013-08-20 23:15:00,67.5,63.8,30.04,SSE,152,0.0,4.0,88,0.00,,,0.00,Wunderground v.1.15,2013-08-21 03:15:00,
2013-08-20 23:25:00,67.3,63.6,30.05,SSE,154,0.0,4.0,88,0.00,,,0.00,Wunderground v.1.15,2013-08-21 03:25:00,
2013-08-20 23:30:00,67.2,63.5,30.05,SSE,153,0.0,0.0,88,0.00,,,0.00,Wunderground v.1.15,2013-08-21 03:30:00,
2013-08-20 23:35:00,67.0,63.3,30.05,SSE,153,0.0,0.0,88,0.00,,,0.00,Wunderground v.1.15,2013-08-21 03:35:00,
2013-08-20 23:40:00,66.8,63.1,30.05,SSE,153,0.0,0.0,88,0.00,,,0.00,Wunderground v.1.15,2013-08-21 03:40:00,
2013-08-20 23:45:00,66.6,63.3,30.05,SSE,154,0.0,0.0,89,0.00,,,0.00,Wunderground v.1.15,2013-08-21 03:45:00,
2013-08-20 23:55:00,66.2,63.2,30.05,SSE,153,0.0,0.0,90,0.00,,,0.00,Wunderground v.1.15,2013-08-21 03:55:00,